When you browse on this site, cookies collect data to enhance your experience and personalize the content and advertising you see.
Visit our Privacy Policy to learn more. By continuing to use the site, you agree to this use of cookies and data.
  • In Hungary
  • List of Countries
  • For 7 days
  • Water Temperature
  • Weather Map
  • News
  • Weather Widgets
  • user-avatar
    Login

    Hourly Weather Mzimba

    Today, 7 December, Saturday

    Time Temperature Precipitation Wind Pressure Humidity
    00:00 +19°C° 0 mm 3 mps 649 mmHg 87%
    01:00 +19°C° 0 mm 3 mps 649 mmHg 87%
    02:00 +19°C° 0 mm 3 mps 649 mmHg 86%
    03:00 +19°C° 0 mm 3 mps 649 mmHg 86%
    04:00 +19°C° 0 mm 3 mps 649 mmHg 86%
    05:00 +19°C° 0 mm 2 mps 649 mmHg 86%
    06:00 +20°C° 0 mm 3 mps 649 mmHg 78%
    07:00 +22°C° 0 mm 3 mps 650 mmHg 69%
    08:00 +25°C° 0 mm 4 mps 651 mmHg 63%
    09:00 +27°C° 0 mm 3 mps 651 mmHg 58%
    10:00 +29°C° 0 mm 2 mps 651 mmHg 52%
    11:00 +31°C° 0 mm 2 mps 651 mmHg 47%
    12:00 +31°C° 0.1 mm 2 mps 650 mmHg 48%
    13:00 +31°C° 0.1 mm 1 mps 650 mmHg 49%
    14:00 +31°C° 0.1 mm 1 mps 649 mmHg 50%
    15:00 +29°C° 1 mm 2 mps 648 mmHg 57%
    16:00 +28°C° 1 mm 2 mps 648 mmHg 65%
    17:00 +26°C° 1 mm 2 mps 647 mmHg 72%
    18:00 +25°C° 0.5 mm 2 mps 647 mmHg 76%
    19:00 +23°C° 0.5 mm 2 mps 647 mmHg 81%
    20:00 +20°C° 0.5 mm 2 mps 648 mmHg 85%
    21:00 +20°C° 0.3 mm 2 mps 648 mmHg 86%
    22:00 +20°C° 0.3 mm 2 mps 648 mmHg 86%
    23:00 +20°C° 0.3 mm 2 mps 648 mmHg 86%

    Tomorrow, 8 December, Sunday

    Time Temperature Precipitation Wind Pressure Humidity
    00:00 +20°C° 0.1 mm 2 mps 648 mmHg 88%
    01:00 +20°C° 0.1 mm 2 mps 648 mmHg 89%
    02:00 +20°C° 0.1 mm 2 mps 647 mmHg 90%
    03:00 +20°C° 0.1 mm 2 mps 647 mmHg 90%
    04:00 +19°C° 0.1 mm 2 mps 648 mmHg 90%
    05:00 +19°C° 0.1 mm 2 mps 648 mmHg 90%
    06:00 +21°C° 0.2 mm 2 mps 649 mmHg 84%
    07:00 +23°C° 0.2 mm 2 mps 649 mmHg 78%
    08:00 +25°C° 0.2 mm 2 mps 650 mmHg 72%
    09:00 +26°C° 0.7 mm 2 mps 650 mmHg 69%
    10:00 +27°C° 0.7 mm 2 mps 650 mmHg 66%
    11:00 +28°C° 0.7 mm 2 mps 649 mmHg 63%
    12:00 +28°C° 1.2 mm 2 mps 649 mmHg 63%
    13:00 +28°C° 1.2 mm 2 mps 648 mmHg 63%
    14:00 +28°C° 1.2 mm 2 mps 648 mmHg 64%
    15:00 +27°C° 1.7 mm 1 mps 648 mmHg 69%
    16:00 +26°C° 1.7 mm 1 mps 648 mmHg 73%
    17:00 +25°C° 1.7 mm 1 mps 647 mmHg 78%
    18:00 +24°C° 1.3 mm 1 mps 648 mmHg 82%
    19:00 +23°C° 1.3 mm 1 mps 648 mmHg 86%
    20:00 +22°C° 1.3 mm 1 mps 648 mmHg 89%
    21:00 +21°C° 1.4 mm 1 mps 648 mmHg 91%
    22:00 +21°C° 1.4 mm 1 mps 648 mmHg 93%
    23:00 +21°C° 1.4 mm 1 mps 648 mmHg 96%

    Day after tomorrow, 9 December, Monday

    Time Temperature Precipitation Wind Pressure Humidity
    00:00 +20°C° 0 mm 1 mps 648 mmHg 96%
    01:00 +20°C° 0 mm 1 mps 647 mmHg 96%
    02:00 +20°C° 0 mm 1 mps 647 mmHg 96%
    03:00 +20°C° 0 mm 1 mps 647 mmHg 96%
    04:00 +20°C° 0 mm 1 mps 647 mmHg 96%
    05:00 +20°C° 0 mm 1 mps 647 mmHg 95%
    06:00 +20°C° 0.1 mm 2 mps 648 mmHg 92%
    07:00 +21°C° 0.1 mm 2 mps 649 mmHg 88%
    08:00 +22°C° 0.1 mm 3 mps 649 mmHg 85%
    09:00 +24°C° 0.3 mm 3 mps 649 mmHg 81%
    10:00 +24°C° 0.3 mm 3 mps 649 mmHg 77%
    11:00 +25°C° 0.3 mm 3 mps 649 mmHg 73%
    12:00 +26°C° 0.3 mm 3 mps 649 mmHg 70%
    13:00 +27°C° 0.3 mm 2 mps 648 mmHg 66%
    14:00 +28°C° 0.3 mm 2 mps 648 mmHg 62%
    15:00 +27°C° 0.6 mm 2 mps 648 mmHg 66%
    16:00 +26°C° 0.6 mm 1 mps 648 mmHg 70%
    17:00 +25°C° 0.6 mm 1 mps 647 mmHg 74%
    18:00 +24°C° 1.3 mm 1 mps 648 mmHg 79%
    19:00 +23°C° 1.3 mm 1 mps 648 mmHg 83%
    20:00 +21°C° 1.3 mm 2 mps 648 mmHg 88%
    21:00 +21°C° 1.8 mm 2 mps 648 mmHg 91%
    22:00 +20°C° 1.8 mm 3 mps 649 mmHg 93%
    23:00 +20°C° 1.8 mm 3 mps 649 mmHg 96%

    10 December, Tuesday

    Time Temperature Precipitation Wind Pressure Humidity
    00:00 +19°C° 0.9 mm 3 mps 648 mmHg 96%
    01:00 +19°C° 0.9 mm 4 mps 648 mmHg 96%
    02:00 +19°C° 0.9 mm 4 mps 648 mmHg 96%
    03:00 +19°C° 0.5 mm 4 mps 648 mmHg 97%
    04:00 +19°C° 0.5 mm 4 mps 648 mmHg 97%
    05:00 +19°C° 0.5 mm 3 mps 648 mmHg 97%
    06:00 +19°C° 0.2 mm 3 mps 649 mmHg 96%
    07:00 +19°C° 0.2 mm 3 mps 649 mmHg 96%
    08:00 +19°C° 0.2 mm 3 mps 650 mmHg 95%
    09:00 +20°C° 0.2 mm 3 mps 650 mmHg 93%
    10:00 +20°C° 0.2 mm 3 mps 649 mmHg 91%
    11:00 +21°C° 0.2 mm 3 mps 649 mmHg 89%
    12:00 +22°C° 0.4 mm 3 mps 649 mmHg 83%
    13:00 +25°C° 0.4 mm 3 mps 648 mmHg 77%
    14:00 +26°C° 0.4 mm 3 mps 648 mmHg 71%
    15:00 +26°C° 0.2 mm 2 mps 648 mmHg 72%
    16:00 +25°C° 0.2 mm 2 mps 648 mmHg 73%
    17:00 +25°C° 0.2 mm 1 mps 647 mmHg 74%
    18:00 +24°C° 0 mm 1 mps 648 mmHg 78%
    19:00 +22°C° 0 mm 1 mps 648 mmHg 83%
    20:00 +21°C° 0 mm 1 mps 648 mmHg 88%
    21:00 +19°C° 0.2 mm 0 mps 648 mmHg 88%
    22:00 +19°C° 0.2 mm 0 mps 648 mmHg 89%
    23:00 +18°C° 0.2 mm 0 mps 649 mmHg 90%

    11 December, Wednesday

    Time Temperature Precipitation Wind Pressure Humidity
    00:00 +20°C° 0.4 mm 1 mps 648 mmHg 91%
    01:00 +20°C° 0.4 mm 1 mps 648 mmHg 93%
    02:00 +20°C° 0.4 mm 1 mps 648 mmHg 94%
    03:00 +19°C° 0.2 mm 2 mps 648 mmHg 95%
    04:00 +19°C° 0.2 mm 2 mps 648 mmHg 97%
    05:00 +19°C° 0.2 mm 3 mps 648 mmHg 98%
    06:00 +19°C° 0.1 mm 3 mps 649 mmHg 97%
    07:00 +19°C° 0.1 mm 3 mps 649 mmHg 96%
    08:00 +19°C° 0.1 mm 3 mps 649 mmHg 95%
    09:00 +20°C° 0.1 mm 3 mps 649 mmHg 92%
    10:00 +21°C° 0.1 mm 3 mps 649 mmHg 89%
    11:00 +21°C° 0.1 mm 4 mps 649 mmHg 86%
    12:00 +22°C° 0 mm 4 mps 649 mmHg 81%
    13:00 +23°C° 0 mm 4 mps 648 mmHg 76%
    14:00 +25°C° 0 mm 4 mps 648 mmHg 71%
    15:00 +25°C° 0 mm 3 mps 648 mmHg 72%
    16:00 +25°C° 0 mm 3 mps 648 mmHg 73%
    17:00 +24°C° 0 mm 2 mps 648 mmHg 75%
    18:00 +23°C° 0 mm 2 mps 648 mmHg 79%
    19:00 +21°C° 0 mm 2 mps 648 mmHg 84%
    20:00 +20°C° 0 mm 2 mps 648 mmHg 89%
    21:00 +20°C° 0 mm 2 mps 648 mmHg 90%
    22:00 +19°C° 0 mm 2 mps 648 mmHg 90%
    23:00 +19°C° 0 mm 2 mps 648 mmHg 90%

    12 December, Thursday

    Time Temperature Precipitation Wind Pressure Humidity
    00:00 +20°C° 0 mm 1 mps 648 mmHg 92%
    01:00 +20°C° 0 mm 1 mps 648 mmHg 93%
    02:00 +20°C° 0 mm 1 mps 648 mmHg 95%
    03:00 +19°C° 0 mm 1 mps 648 mmHg 95%
    04:00 +19°C° 0 mm 1 mps 648 mmHg 96%
    05:00 +19°C° 0 mm 1 mps 648 mmHg 97%
    06:00 +19°C° 0 mm 2 mps 649 mmHg 90%
    07:00 +21°C° 0 mm 2 mps 650 mmHg 83%
    08:00 +22°C° 0 mm 3 mps 650 mmHg 76%
    09:00 +24°C° 0.2 mm 3 mps 650 mmHg 71%
    10:00 +26°C° 0.2 mm 3 mps 650 mmHg 67%
    11:00 +27°C° 0.2 mm 3 mps 650 mmHg 62%
    12:00 +28°C° 0.6 mm 2 mps 650 mmHg 60%
    13:00 +28°C° 0.6 mm 2 mps 650 mmHg 58%
    14:00 +29°C° 0.6 mm 2 mps 649 mmHg 55%
    15:00 +27°C° 0.6 mm 1 mps 649 mmHg 62%
    16:00 +26°C° 0.6 mm 1 mps 648 mmHg 69%
    17:00 +25°C° 0.6 mm 1 mps 648 mmHg 76%
    18:00 +24°C° 1 mm 1 mps 648 mmHg 79%
    19:00 +23°C° 1 mm 1 mps 649 mmHg 83%
    20:00 +22°C° 1 mm 1 mps 649 mmHg 86%
    21:00 +22°C° 1.3 mm 1 mps 649 mmHg 86%
    22:00 +21°C° 1.3 mm 1 mps 649 mmHg 87%
    23:00 +21°C° 1.3 mm 1 mps 649 mmHg 87%
    Show more